DLH62S PAKT-CYXY

Flight info

Callsign DLH62S
Flight time N/A
Altitude 36000
Route ANN3 ANN Q902 SSR J536 YXY
Aircraft A320/M-SDE3FGHIRWY/LB1

Departure

Time 2026-05-07 13:19
Airport Ketchikan International Airport (PAKT)

Arrival

Time N/A
Airport Whitehorse / Erik Nielsen International Airport (CYXY)
Time Latitude Longitude Altitude Speed Heading
2026-05-07 13:06 55.35657 -131.71029 77 ft 0 kts 45°
2026-05-07 13:12 55.35657 -131.71030 -5 ft 2 kts 45°
2026-05-07 13:12 55.35628 -131.71079 86 ft 2 kts 34°
2026-05-07 13:13 55.35620 -131.71092 266 ft 1 kts 28°
2026-05-07 13:13 55.35612 -131.71103 89 ft 1 kts 26°
2026-05-07 13:13 55.35603 -131.71112 93 ft 1 kts 20°
2026-05-07 13:13 55.35594 -131.71118 95 ft 1 kts
2026-05-07 13:14 55.35581 -131.71115 225 ft 2 kts 322°
2026-05-07 13:14 55.35574 -131.71105 92 ft 1 kts 320°
2026-05-07 13:14 55.35569 -131.71096 95 ft 1 kts 317°
2026-05-07 13:14 55.35567 -131.71094 93 ft 0 kts 315°
2026-05-07 13:16 55.35568 -131.71094 7 ft 0 kts 316°
2026-05-07 13:16 55.35577 -131.71063 88 ft 2 kts 106°
2026-05-07 13:16 55.35552 -131.71040 93 ft 9 kts 150°
2026-05-07 13:17 55.35505 -131.70987 273 ft 12 kts 147°
2026-05-07 13:17 55.35397 -131.70802 92 ft 26 kts 135°
2026-05-07 13:17 55.35265 -131.70582 90 ft 27 kts 140°
2026-05-07 13:17 55.35125 -131.70362 92 ft 27 kts 129°
2026-05-07 13:18 55.34998 -131.70143 97 ft 25 kts 136°
2026-05-07 13:18 55.34887 -131.70048 100 ft 15 kts 195°
2026-05-07 13:18 55.34854 -131.70171 99 ft 0 kts 307°
2026-05-07 13:18 55.34887 -131.70204 99 ft 29 kts 323°
2026-05-07 13:19 55.35215 -131.70800 92 ft 102 kts 315°
2026-05-07 13:19 55.35856 -131.71896 174 ft 147 kts 316°
2026-05-07 13:19 55.36584 -131.73104 908 ft 143 kts 316°
2026-05-07 13:19 55.37296 -131.74314 1708 ft 141 kts 315°
2026-05-07 13:20 55.37977 -131.75544 2224 ft 143 kts 314°
2026-05-07 13:20 55.38734 -131.76856 2651 ft 163 kts 317°
2026-05-07 13:20 55.39615 -131.78317 2963 ft 186 kts 317°
2026-05-07 13:20 55.40622 -131.79968 3255 ft 211 kts 317°
2026-05-07 13:21 55.41745 -131.81808 3532 ft 235 kts 316°
2026-05-07 13:21 55.42994 -131.83861 4347 ft 251 kts 317°
2026-05-07 13:21 55.44299 -131.86007 5283 ft 256 kts 317°
2026-05-07 13:21 55.45618 -131.88181 6186 ft 261 kts 316°
2026-05-07 13:22 55.46944 -131.90374 7114 ft 263 kts 315°
2026-05-07 13:22 55.48265 -131.92555 8001 ft 265 kts 315°
2026-05-07 13:22 55.49618 -131.94792 8888 ft 268 kts 315°
2026-05-07 13:22 55.50989 -131.97058 9675 ft 273 kts 314°
2026-05-07 13:23 55.52382 -131.99360 9551 ft 277 kts 316°
2026-05-07 13:23 55.53848 -132.01787 10224 ft 300 kts 314°
2026-05-07 13:23 55.55429 -132.04414 10488 ft 323 kts 314°
2026-05-07 13:23 55.57093 -132.07184 11063 ft 333 kts 314°
2026-05-07 13:24 55.58788 -132.10010 11370 ft 339 kts 316°
2026-05-07 13:24 55.60548 -132.12946 12118 ft 352 kts 314°
2026-05-07 13:24 55.62312 -132.15882 13169 ft 346 kts 314°
2026-05-07 13:24 55.64224 -132.18511 14020 ft 351 kts 324°
2026-05-07 13:25 55.66332 -132.20758 14609 ft 357 kts 326°
2026-05-07 13:25 55.68482 -132.23030 15235 ft 360 kts 326°
2026-05-07 13:25 55.70633 -132.25303 15932 ft 362 kts 325°
2026-05-07 13:25 55.72805 -132.27609 16580 ft 364 kts 325°
2026-05-07 13:26 55.74983 -132.29935 17212 ft 368 kts 325°
2026-05-07 13:26 55.77187 -132.32296 17832 ft 371 kts 325°
2026-05-07 13:26 55.79406 -132.34672 18438 ft 374 kts 325°
2026-05-07 13:26 55.81644 -132.37068 18983 ft 377 kts 324°
2026-05-07 13:27 55.83889 -132.39481 18918 ft 380 kts 328°
2026-05-07 13:27 55.86177 -132.41942 19734 ft 386 kts 324°
2026-05-07 13:27 55.88472 -132.44407 20393 ft 385 kts 324°
2026-05-07 13:27 55.90772 -132.46878 20928 ft 387 kts 324°
2026-05-07 13:28 55.93088 -132.49374 20849 ft 389 kts 328°
2026-05-07 13:28 55.95424 -132.51898 21636 ft 395 kts 324°
2026-05-07 13:28 55.97772 -132.54443 22244 ft 395 kts 324°
2026-05-07 13:28 56.00124 -132.56995 22779 ft 396 kts 324°
2026-05-07 13:29 56.02484 -132.59560 22582 ft 398 kts 328°
2026-05-07 13:29 56.04867 -132.62155 23430 ft 404 kts 324°
2026-05-07 13:29 56.07267 -132.64767 23962 ft 404 kts 323°
2026-05-07 13:29 56.09674 -132.67383 24377 ft 405 kts 323°
2026-05-07 13:30 56.12083 -132.70006 24102 ft 406 kts 328°
2026-05-07 13:30 56.14512 -132.72659 24912 ft 411 kts 323°
2026-05-07 13:30 56.16956 -132.75335 25349 ft 411 kts 323°
2026-05-07 13:30 56.19402 -132.78014 25762 ft 412 kts 323°
2026-05-07 13:31 56.21862 -132.80720 26152 ft 414 kts 322°
2026-05-07 13:31 56.24319 -132.83423 26518 ft 416 kts 322°
2026-05-07 13:31 56.26794 -132.86142 26896 ft 418 kts 322°
2026-05-07 13:31 56.29278 -132.88878 27266 ft 419 kts 322°
2026-05-07 13:32 56.31768 -132.91630 27560 ft 420 kts 324°
2026-05-07 13:32 56.34274 -132.94405 27798 ft 424 kts 322°
2026-05-07 13:32 56.36787 -132.97197 28173 ft 425 kts 322°
2026-05-07 13:32 56.39276 -132.99957 28568 ft 426 kts 321°
2026-05-07 13:33 56.41834 -133.02799 28888 ft 426 kts 324°
2026-05-07 13:33 56.44366 -133.05623 29116 ft 429 kts 321°
2026-05-07 13:33 56.46897 -133.08454 29478 ft 429 kts 321°
2026-05-07 13:33 56.49414 -133.11358 29820 ft 429 kts 320°
2026-05-07 13:34 56.51869 -133.14295 30196 ft 428 kts 319°
2026-05-07 13:34 56.56783 -133.20313 30956 ft 425 kts 318°
2026-05-07 13:34 56.59233 -133.23312 31320 ft 424 kts 319°
2026-05-07 13:35 56.61680 -133.26300 30720 ft 423 kts 325°
2026-05-07 13:35 56.64128 -133.29282 31789 ft 424 kts 319°
2026-05-07 13:35 56.66580 -133.32271 32009 ft 426 kts 318°
2026-05-07 13:35 56.69040 -133.35274 32362 ft 425 kts 318°
2026-05-07 13:36 56.71495 -133.38271 31695 ft 424 kts 325°
2026-05-07 13:36 56.73944 -133.41258 32801 ft 424 kts 319°
2026-05-07 13:36 56.76398 -133.44259 33107 ft 424 kts 318°
2026-05-07 13:36 56.78846 -133.47255 33498 ft 423 kts 318°
2026-05-07 13:37 56.81282 -133.50245 32760 ft 421 kts 325°
2026-05-07 13:37 56.83712 -133.53231 33968 ft 422 kts 318°
2026-05-07 13:37 56.86158 -133.56239 34212 ft 423 kts 318°
2026-05-07 13:38 56.91031 -133.62258 33216 ft 422 kts 325°
2026-05-07 13:38 56.93466 -133.65278 34299 ft 424 kts 318°
2026-05-07 13:38 56.95904 -133.68303 34320 ft 423 kts 318°
2026-05-07 13:39 57.00764 -133.74335 34331 ft 422 kts 318°
2026-05-07 13:39 57.05633 -133.80404 34328 ft 423 kts 318°
2026-05-07 13:40 57.10501 -133.86488 34324 ft 424 kts 318°
2026-05-07 13:40 57.15367 -133.92593 34301 ft 424 kts 317°
2026-05-07 13:41 57.20235 -133.98728 34289 ft 424 kts 317°
2026-05-07 13:41 57.25074 -134.04838 34274 ft 424 kts 317°
2026-05-07 13:42 57.29946 -134.11016 34297 ft 426 kts 319°
2026-05-07 13:42 57.34843 -134.17237 34284 ft 427 kts 318°
2026-05-07 13:43 57.39738 -134.23483 34281 ft 428 kts 319°
2026-05-07 13:43 57.44654 -134.29779 34242 ft 428 kts 318°
2026-05-07 13:44 57.49911 -134.35375 31561 ft 484 kts 338°
2026-05-07 13:44 57.53018 -134.37108 31791 ft 455 kts 338°
2026-05-07 13:44 57.55930 -134.38803 32430 ft 428 kts 334°
2026-05-07 13:44 57.58753 -134.40433 32914 ft 424 kts 338°
2026-05-07 13:45 57.61421 -134.42270 32581 ft 391 kts 335°
2026-05-07 13:45 57.63842 -134.44243 34284 ft 380 kts 325°
2026-05-07 13:45 57.66197 -134.46543 34082 ft 381 kts 320°
2026-05-07 13:45 57.68321 -134.49301 34392 ft 368 kts 315°
2026-05-07 13:46 57.70240 -134.52459 33011 ft 364 kts 320°
2026-05-07 13:46 57.72300 -134.55419 33276 ft 375 kts 314°
2026-05-07 13:46 57.74353 -134.58402 33590 ft 368 kts 311°
2026-05-07 13:46 57.76190 -134.61588 33788 ft 357 kts 306°
2026-05-07 13:47 57.77373 -134.65270 32942 ft 331 kts 299°
2026-05-07 13:47 57.78798 -134.68676 32625 ft 342 kts 318°
2026-05-07 13:47 57.80759 -134.71272 33681 ft 347 kts 319°
2026-05-07 13:47 57.83071 -134.73212 33019 ft 376 kts 335°
2026-05-07 13:48 57.85735 -134.74598 31455 ft 436 kts 351°
2026-05-07 13:48 57.88861 -134.74536 30422 ft 462 kts 353°
2026-05-07 13:48 57.92232 -134.74202 29102 ft 503 kts
2026-05-07 13:48 57.95761 -134.73202 28149 ft 523 kts
2026-05-07 13:49 57.99245 -134.71991 29464 ft 508 kts 10°
2026-05-07 13:49 58.02585 -134.69791 30091 ft 508 kts 18°
2026-05-07 13:49 58.05577 -134.66209 30630 ft 513 kts 32°
2026-05-07 13:49 58.08275 -134.61397 28052 ft 572 kts 47°
2026-05-07 13:50 58.10669 -134.55228 27176 ft 572 kts 56°
2026-05-07 13:50 58.12617 -134.49161 29671 ft 507 kts 62°
2026-05-07 13:50 58.14212 -134.43526 29268 ft 476 kts 63°
2026-05-07 13:50 58.16273 -134.38297 29041 ft 493 kts 45°
2026-05-07 13:51 58.18495 -134.33524 29946 ft 478 kts 59°
2026-05-07 13:51 58.19800 -134.28438 32935 ft 393 kts 71°
2026-05-07 13:51 58.20055 -134.23637 34909 ft 349 kts 99°
2026-05-07 13:51 58.19731 -134.19041 34525 ft 371 kts 84°
2026-05-07 13:52 58.20552 -134.14325 33419 ft 397 kts 58°
2026-05-07 13:52 58.22545 -134.10285 31727 ft 440 kts 45°
2026-05-07 13:52 58.25426 -134.07903 30236 ft 474 kts
2026-05-07 13:52 58.27649 -134.08379 29786 ft 483 kts 335°
2026-05-07 13:53 58.30931 -134.13926 28111 ft 516 kts 310°
2026-05-07 13:53 58.32530 -134.17395 28410 ft 510 kts 315°
2026-05-07 13:53 58.35235 -134.21452 28678 ft 487 kts 329°
2026-05-07 13:53 58.38239 -134.23856 29142 ft 452 kts 343°
2026-05-07 13:54 58.41318 -134.24628 26335 ft 465 kts 14°
2026-05-07 13:54 58.44019 -134.20690 22330 ft 541 kts 51°
2026-05-07 13:54 58.45596 -134.16196 21997 ft 525 kts 65°
2026-05-07 13:55 58.46709 -134.11171 22087 ft 499 kts 67°
2026-05-07 13:55 58.48156 -134.05241 21388 ft 477 kts 54°
2026-05-07 13:55 58.50322 -134.01054 22048 ft 435 kts 28°
2026-05-07 13:56 58.52825 -134.01147 24242 ft 325 kts 338°
2026-05-07 13:56 58.54845 -134.02160 25063 ft 287 kts 357°
2026-05-07 13:56 58.56901 -134.01849 23101 ft 327 kts 17°
2026-05-07 13:56 58.58845 -133.99883 22006 ft 351 kts 30°
2026-05-07 13:59 58.59777 -133.98411 20747 ft 384 kts 54°
2026-05-07 13:59 58.60239 -133.94366 17709 ft 459 kts 105°